1501934400.42,15614,25.69,74576.5,21.95,12.37,9.91,0,*73
1501934401.67,15615,25.69,74578.8,21.97,11.41,9.01,0,*7B
1501934402.92,15616,25.69,74578.5,22.03,11.37,9.03,0,*75
1501934404.13,15617,25.69,74580.5,22.05,11.71,9.43,0,*74
1501934405.34,15618,25.69,74578.8,22.09,11.61,9.33,0,*71
1501934406.53,15619,25.69,74578.3,22.13,11.93,9.71,0,*70
1501934407.76,15620,25.69,74578.5,22.15,12.77,10.65,0,*48
1501934409.0,15621,25.63,74576.5,22.25,14.09,12.17,0,*42
1501934410.22,15622,25.63,74578.5,22.29,13.85,11.85,0,*46
1501934411.47,15623,25.69,74580.0,22.37,13.59,11.61,0,*43
1501934412.73,15624,25.69,74580.5,22.41,13.81,11.79,0,*49
1501934413.95,15625,25.69,74580.8,22.51,13.71,11.79,0,*46
1501934415.16,15626,25.69,74582.5,22.59,14.25,12.39,0,*4C
1501934416.4,15627,25.69,74580.0,22.65,14.51,12.71,0,*4D
1501934417.65,15628,25.69,74576.0,22.73,14.65,12.83,0,*4F
1501934418.89,15629,25.69,74580.5,22.81,15.19,13.31,0,*41
1501934420.12,15630,25.69,74580.8,22.89,15.09,13.31,0,*40
1501934421.36,15631,25.69,74580.8,22.97,14.71,12.63,0,*46
1501934422.6,15632,25.69,74582.5,23.01,14.29,12.37,0,*47
1501934423.84,15633,25.69,74580.8,23.11,14.89,12.97,0,*47
1501934425.09,15634,25.69,74582.0,23.17,14.65,12.83,0,*41
1501934426.36,15635,25.69,74582.5,23.25,14.55,12.71,0,*4F
1501934427.6,15636,25.69,74584.3,23.33,14.51,12.67,0,*48
1501934428.85,15637,25.69,74582.5,23.39,14.79,12.97,0,*46
1501934430.07,15638,25.69,74580.0,23.47,14.79,13.07,0,*48
1501934431.34,15639,25.69,74582.5,23.55,14.95,13.05,0,*4A
1501934432.58,15640,25.69,74582.3,23.61,14.71,12.87,0,*42
1501934433.79,15641,25.69,74582.8,23.67,14.69,12.95,0,*4F
1501934435.0,15642,25.69,74580.5,23.73,14.75,13.15,0,*4D
1501934436.22,15643,25.69,74580.8,23.83,14.95,13.25,0,*4E
1501934437.49,15644,25.69,74578.8,23.89,14.49,12.71,0,*42
1501934438.68,15645,25.69,74578.5,23.95,14.39,12.77,0,*4F
1501934439.9,15646,25.69,74580.0,23.99,13.85,12.27,0,*45
1501934441.09,15647,25.69,74582.8,24.07,14.35,12.81,0,*44
1501934442.31,15648,25.69,74580.3,24.13,14.25,12.77,0,*46
1501934443.55,15649,25.69,74576.8,24.19,14.11,12.77,0,*4A
1501934444.77,15650,25.69,74582.0,24.29,14.51,13.21,0,*47
1501934446.01,15651,25.69,74576.8,24.33,13.91,12.53,0,*42
1501934447.25,15652,25.69,74580.3,24.39,13.99,12.61,0,*42
1501934448.48,15653,25.69,74580.8,24.43,13.41,12.13,0,*4E
1501934449.67,15654,25.69,74580.8,24.47,13.15,11.85,0,*40
1501934450.94,15655,25.69,74578.5,24.53,11.23,9.81,0,*7E
1501934452.18,15656,25.69,74582.8,24.55,11.75,10.61,0,*4E
1501934453.38,15657,25.69,74582.8,24.59,13.79,12.81,0,*41
1501934454.65,15658,25.69,74582.0,24.65,14.15,13.21,0,*47
1501934455.89,15659,25.69,74582.5,24.75,14.59,13.61,0,*4B
1501934457.16,15660,25.69,74584.3,24.83,14.15,13.27,0,*42
1501934458.38,15661,25.69,74582.3,24.85,13.99,13.11,0,*43
1501934459.64,15662,25.69,74584.3,24.91,13.81,12.87,0,*42
1501934460.85,15663,25.69,74582.3,24.97,13.79,12.97,0,*43
1501934462.1,15664,25.69,74582.3,25.05,13.55,12.71,0,*48
1501934463.32,15665,25.69,74582.5,25.09,14.05,13.31,0,*42
1501934464.57,15666,25.69,74582.0,25.15,13.91,13.25,0,*43
1501934465.81,15667,25.69,74580.8,25.23,13.55,12.77,0,*49
1501934467.03,15668,25.69,74586.3,25.29,13.07,12.29,0,*40
1501934468.3,15669,25.69,74584.8,25.35,12.87,12.09,0,*47
1501934469.54,15670,25.69,74584.5,25.35,11.93,11.23,0,*42
1501934470.81,15671,25.69,74582.3,25.41,12.05,11.27,0,*48
1501934472.07,15672,25.69,74580.5,25.45,11.47,10.79,0,*40
1501934473.29,15673,25.69,74582.3,25.47,11.09,10.37,0,*43
1501934474.51,15674,25.69,74582.0,25.49,11.17,10.55,0,*41
1501934475.72,15675,25.69,74582.8,25.53,10.05,9.25,0,*76
1501934476.95,15676,25.69,74580.5,25.53,8.83,7.95,0,*47
1501934478.16,15677,25.69,74584.3,25.51,7.73,6.75,0,*4B
1501934479.36,15678,25.69,74586.3,25.49,7.59,6.79,0,*49
1501934480.59,15679,25.69,74586.8,25.47,6.35,5.67,0,*41
1501934481.79,15680,25.69,74584.5,25.47,5.55,4.85,0,*4F
1501934483.03,15681,25.69,74584.3,25.43,4.75,3.75,0,*41
1501934484.21,15682,25.69,74584.8,25.37,3.29,2.61,0,*4B
1501934485.44,15683,25.69,74582.0,25.29,2.89,2.39,0,*43
1501934486.65,15684,25.69,74582.0,25.25,3.41,2.99,0,*47
1501934487.88,15685,25.69,74584.0,25.15,3.29,3.03,0,*49
1501934489.14,15686,25.69,74584.3,25.11,2.17,1.89,0,*42
1501934490.37,15687,25.69,74584.3,25.07,2.65,2.69,0,*4C
1501934491.6,15688,25.69,74586.8,25.01,3.23,3.49,0,*45
1501934492.81,15689,25.69,74580.8,24.93,3.53,3.93,0,*4E
1501934494.03,15690,25.69,74582.3,24.91,4.19,4.63,0,*45
1501934495.27,15691,25.69,74584.0,24.89,4.71,5.27,0,*42
1501934496.53,15692,25.69,74580.5,24.87,6.35,7.15,0,*4E
1501934497.77,15693,25.69,74584.3,24.87,7.27,8.05,0,*43
1501934499.01,15694,25.69,74584.5,24.89,7.23,7.95,0,*48
1501934500.19,15695,25.69,74582.8,24.89,8.23,9.03,0,*47
1501934501.42,15696,25.69,74580.5,24.91,8.37,9.25,0,*4C
1501934502.62,15697,25.69,74576.5,24.97,7.45,8.33,0,*47
1501934503.8,15698,25.69,74580.5,24.97,8.27,9.21,0,*41
1501934505.07,15699,25.69,74582.5,24.99,9.81,10.71,0,*7E
1501934506.31,15700,25.69,74582.8,25.05,9.85,10.65,0,*7A
1501934507.55,15701,25.69,74582.0,25.07,8.27,8.93,0,*40
1501934508.78,15702,25.69,74584.0,25.09,8.29,8.93,0,*43
1501934510.0,15703,25.69,74582.5,25.09,8.37,8.97,0,*49
1501934511.22,15704,25.69,74582.3,25.13,8.87,9.53,0,*47
1501934512.43,15705,25.69,74582.5,25.11,8.19,8.79,0,*4A
1501934513.66,15706,25.69,74580.8,25.13,8.13,8.41,0,*4A
1501934514.9,15707,25.69,74582.8,25.19,8.41,8.69,0,*4C
1501934516.11,15708,25.69,74580.5,25.19,8.87,8.87,0,*49
1501934517.37,15709,25.69,74580.0,25.19,9.15,9.19,0,*44
1501934518.59,15710,25.69,74580.0,25.23,9.21,8.97,0,*45
1501934519.79,15711,25.69,74582.5,25.23,7.45,7.09,0,*40
1501934521.02,15712,25.69,74580.8,25.21,6.57,5.89,0,*49
1501934522.19,15713,25.69,74580.5,25.21,7.41,6.75,0,*4E
1501934523.38,15714,25.69,74582.3,25.21,6.83,6.03,0,*47
1501934524.55,15715,25.69,74582.0,25.21,6.83,5.71,0,*40
1501934525.79,15716,25.69,74580.5,25.19,6.73,5.41,0,*44
1501934527.0,15717,25.69,74582.0,25.19,5.99,4.45,0,*47
1501934528.17,15718,25.69,74580.3,25.13,5.49,3.85,0,*44
1501934529.39,15719,25.69,74582.5,25.11,6.25,4.45,0,*45
1501934530.62,15720,25.69,74582.5,25.11,7.73,5.71,0,*4B
1501934531.86,15721,25.69,74582.0,25.11,7.27,5.11,0,*4D
1501934533.13,15722,25.69,74576.5,25.11,6.65,4.31,0,*4A
1501934534.36,15723,25.69,74578.5,25.07,6.87,4.33,0,*42
1501934535.62,15724,25.69,74576.8,25.07,6.57,3.97,0,*41
1501934536.86,15725,25.69,74582.5,25.03,6.29,3.45,0,*42
1501934538.09,15726,25.69,74582.3,25.03,5.15,2.17,0,*4B
1501934539.32,15727,25.69,74582.5,25.01,4.93,1.85,0,*4F
1501934540.53,15728,25.69,74580.3,24.93,4.57,1.37,0,*4B
1501934541.73,15729,25.69,74576.3,24.93,4.53,1.33,0,*4A
1501934542.97,15730,25.69,74580.0,24.89,4.71,1.29,0,*42
1501934544.14,15731,25.69,74582.8,24.85,4.33,1.01,0,*43
1501934545.34,15732,25.69,74582.8,24.85,4.89,1.43,0,*47
1501934546.55,15733,25.69,74578.0,24.81,4.85,1.37,0,*4D
1501934547.78,15734,25.69,74578.5,24.79,3.89,0.33,0,*73
1501934548.99,15735,25.69,74582.8,24.77,4.53,0.91,0,*74
1501934550.23,15736,25.69,74580.8,24.73,4.59,0.95,0,*7D
1501934551.45,15737,25.69,74584.0,24.67,4.01,0.17,0,*7E
1501934552.64,15738,25.69,74580.3,24.67,4.45,0.63,0,*72
1501934553.87,15739,25.69,74582.0,24.63,4.05,0.33,0,*76
1501934555.07,15740,25.69,74582.0,24.59,3.79,0.01,0,*4C
1501934556.27,15741,25.69,74580.8,24.57,4.41,0.43,0,*79
1501934557.47,15742,25.69,74582.3,24.57,4.89,0.97,0,*77
1501934558.73,15743,25.69,74582.3,24.57,5.01,1.17,0,*4E
1501934559.98,15744,25.69,74582.0,24.53,4.63,0.67,0,*7E
1501934561.18,15745,25.69,74580.0,24.51,4.57,0.55,0,*7B
1501934562.41,15746,25.69,74580.8,24.51,5.01,1.13,0,*49
1501934563.66,15747,25.69,74580.5,24.53,4.63,0.67,0,*7D
1501934564.89,15748,25.69,74580.3,24.47,4.31,0.33,0,*71
1501934566.07,15749,25.69,74582.0,24.47,4.07,0.09,0,*4C
1501934567.32,15750,25.69,74582.3,24.43,4.93,0.83,0,*7F
1501934568.54,15751,25.69,74582.5,24.45,5.01,0.97,0,*77
1501934569.76,15752,25.69,74584.3,24.43,4.27,0.17,0,*7F
1501934570.99,15753,25.69,74582.5,24.41,4.01,-0.23,0,*52
1501934572.16,15754,25.69,74582.5,24.41,4.19,-0.07,0,*6A
1501934573.37,15755,25.69,74580.0,24.39,4.07,-0.07,0,*6B
1501934574.59,15756,25.69,74580.8,24.39,4.27,0.17,0,*76
1501934575.81,15757,25.69,74580.3,24.39,4.27,0.17,0,*77
1501934577.01,15758,25.69,74582.5,24.37,4.85,0.75,0,*7A
1501934578.22,15759,25.69,74582.0,24.39,5.49,1.47,0,*44
1501934579.42,15760,25.69,74582.5,24.37,6.07,1.97,0,*44
1501934580.63,15761,25.69,74582.8,24.39,6.29,2.35,0,*4C
1501934581.84,15762,25.69,74584.3,24.41,6.33,2.43,0,*4A
1501934583.09,15763,25.69,74582.0,24.43,6.69,2.89,0,*40
1501934584.29,15764,25.69,74582.0,24.43,7.41,3.81,0,*45
1501934585.5,15765,25.69,74582.5,24.47,7.51,3.97,0,*46
1501934586.68,15766,25.69,74582.3,24.55,8.65,5.11,0,*46
1501934587.86,15767,25.69,74578.8,24.59,9.03,5.49,0,*47
1501934589.1,15768,25.69,74576.5,24.65,9.19,5.59,0,*4D
1501934590.31,15769,25.69,74576.8,24.69,9.07,5.41,0,*46
1501934591.49,15770,25.69,74580.5,24.75,8.19,4.41,0,*4C
1501934592.7,15771,25.69,74580.0,24.77,6.83,2.77,0,*41
1501934593.93,15772,25.69,74580.8,24.79,6.11,2.21,0,*44
1501934595.16,15773,25.69,74580.3,24.79,5.07,0.91,0,*78
1501934596.36,15774,25.69,74582.8,24.77,4.57,0.37,0,*79
1501934597.56,15775,25.69,74576.0,24.77,4.41,0.17,0,*7D
1501934598.78,15776,25.69,74580.8,24.75,4.97,0.83,0,*7A
1501934599.97,15777,25.69,74580.8,24.75,5.29,1.09,0,*4C
1501934601.17,15778,25.69,74578.8,24.75,5.49,1.17,0,*4A
1501934602.32,15779,25.69,74586.5,24.75,5.45,0.97,0,*7E
1501934603.54,15780,25.69,74584.3,24.73,5.45,0.95,0,*7C
1501934604.79,15781,25.69,74582.5,24.73,6.13,1.67,0,*41
1501934606.01,15782,25.69,74580.3,24.75,5.77,1.21,0,*47
1501934607.21,15783,25.69,74582.0,24.75,7.29,2.85,0,*42
1501934608.4,15784,25.69,74582.0,24.77,7.55,2.91,0,*49
1501934609.65,15785,25.69,74582.3,24.79,6.43,1.71,0,*4D
1501934610.88,15786,25.69,74584.3,24.79,6.11,1.17,0,*49
1501934612.11,15787,25.69,74580.0,24.81,5.55,0.55,0,*7B
1501934613.3,15788,25.69,74582.5,24.81,5.37,0.33,0,*70
1501934614.48,15789,25.69,74580.3,24.81,5.63,0.43,0,*77
1501934615.7,15790,25.69,74582.5,24.81,5.77,0.79,0,*73
1501934616.88,15791,25.69,74580.0,24.81,6.79,1.75,0,*42
1501934618.14,15792,25.69,74580.0,24.83,5.89,0.59,0,*70
1501934619.34,15793,25.69,74582.3,24.81,5.07,-0.23,0,*55
1501934620.54,15794,25.69,74582.3,24.81,5.49,0.29,0,*7F
1501934621.75,15795,25.69,74582.5,24.81,5.95,0.63,0,*71
1501934622.95,15796,25.69,74586.0,24.81,4.67,-0.81,0,*5F
1501934624.2,15797,25.69,74586.3,24.81,3.07,-2.59,0,*68
1501934625.41,15798,25.69,74584.0,24.77,3.97,-1.51,0,*6C
1501934626.64,15799,25.69,74580.3,24.77,4.67,-0.85,0,*5D
1501934627.82,15800,25.69,74586.0,24.75,4.37,-1.17,0,*6F
1501934629.05,15801,25.69,74582.8,24.75,4.59,-0.93,0,*5B
1501934630.28,15802,25.69,74580.3,24.73,4.97,-0.53,0,*50
1501934631.48,15803,25.69,74584.3,24.69,5.29,-0.19,0,*50
1501934632.7,15804,25.69,74582.3,24.73,5.11,-0.27,0,*5A
1501934633.93,15805,25.69,74584.5,24.73,5.23,-0.27,0,*5A
1501934635.17,15806,25.69,74586.0,24.73,5.01,-0.49,0,*51
1501934636.38,15807,25.69,74584.5,24.73,5.07,-0.41,0,*5E
1501934637.59,15808,25.69,74584.5,24.73,4.37,-1.17,0,*61
1501934638.83,15809,25.69,74584.8,24.73,4.19,-1.35,0,*6C
1501934640.07,15810,25.69,74582.3,24.69,3.75,-1.71,0,*62
1501934641.28,15811,25.69,74582.5,24.69,3.93,-1.51,0,*69
1501934642.5,15812,25.69,74582.3,24.67,4.07,-1.35,0,*6C
1501934643.76,15813,25.69,74580.8,24.65,3.67,-1.87,0,*67
1501934645.0,15814,25.69,74586.0,24.63,3.45,-2.03,0,*69
1501934646.21,15815,25.69,74582.5,24.63,3.23,-2.15,0,*6F
1501934647.42,15816,25.69,74582.5,24.63,4.41,-0.85,0,*54
1501934648.64,15817,25.69,74580.3,24.61,5.19,0.17,0,*7D
1501934649.84,15818,25.69,74580.8,24.63,5.23,0.25,0,*78
1501934651.05,15819,25.69,74582.3,24.65,4.57,-0.49,0,*5A
1501934652.26,15820,25.69,74584.3,24.65,4.41,-0.49,0,*57
1501934653.46,15821,25.69,74582.0,24.65,4.49,-0.37,0,*57
1501934654.69,15822,25.69,74580.5,24.65,4.75,0.09,0,*4B
1501934655.89,15823,25.69,74582.0,24.67,5.33,0.75,0,*70
1501934657.13,15824,25.69,74580.5,24.69,5.27,0.75,0,*7C
1501934658.35,15825,25.69,74580.8,24.69,4.59,0.01,0,*46
1501934659.56,15826,25.69,74582.3,24.73,4.37,-0.15,0,*5E
1501934660.8,15827,25.69,74580.8,24.69,3.67,-0.81,0,*5B
1501934662.03,15828,25.69,74580.3,24.75,3.07,-1.35,0,*61
1501934663.26,15829,25.69,74580.8,24.73,3.71,-0.61,0,*57
1501934664.49,15830,25.69,74582.8,24.69,4.01,-0.33,0,*53
1501934665.73,15831,25.69,74582.5,24.69,2.59,-1.71,0,*6E
1501934666.96,15832,25.69,74580.8,24.69,2.95,-1.05,0,*6E
1501934668.2,15833,25.69,74586.3,24.69,5.27,1.67,0,*48
1501934669.37,15834,25.69,74580.5,24.75,7.97,4.49,0,*42
1501934670.61,15835,25.69,74582.8,24.79,8.27,4.75,0,*44
1501934671.85,15836,25.69,74582.3,24.87,7.77,4.37,0,*4A
1501934673.07,15837,25.69,74580.8,24.91,7.05,3.67,0,*4B
1501934674.31,15838,25.69,74580.5,24.97,6.65,3.37,0,*40
1501934675.53,15839,25.69,74584.3,25.01,6.61,3.19,0,*47
1501934676.71,15840,25.69,74582.3,25.05,5.67,2.31,0,*43
1501934677.94,15841,25.69,74582.3,25.07,5.37,1.85,0,*49
1501934679.16,15842,25.69,74582.8,25.07,3.25,-0.23,0,*5F
1501934680.37,15843,25.69,74582.8,25.09,2.05,-1.55,0,*63
1501934681.6,15844,25.69,74580.0,25.05,1.21,-2.39,0,*64
1501934682.86,15845,25.69,74578.3,25.03,1.47,-1.99,0,*6A
1501934684.1,15846,25.69,74580.5,24.99,1.29,-2.19,0,*68
1501934685.36,15847,25.69,74580.0,24.99,0.87,-2.59,0,*58
1501934686.57,15848,25.69,74576.8,24.93,0.51,-2.99,0,*5A
1501934687.76,15849,25.69,74578.5,24.89,0.41,-3.11,0,*50
1501934688.96,15850,25.69,74578.3,24.85,0.37,-3.15,0,*51
1501934690.17,15851,25.69,74576.8,24.85,0.51,-2.95,0,*59
1501934691.43,15852,25.69,74578.0,24.83,1.93,-1.43,0,*6B
1501934692.64,15853,25.69,74576.3,24.81,1.59,-1.79,0,*67
1501934693.88,15854,25.69,74578.0,24.79,2.21,-1.21,0,*66
1501934695.08,15855,25.69,74582.0,24.77,0.17,-3.27,0,*5A
1501934696.3,15856,25.69,74580.5,24.77,1.59,-1.71,0,*63
1501934697.53,15857,25.69,74576.8,24.75,2.01,-1.35,0,*6E
1501934698.79,15858,25.69,74578.0,24.73,2.01,-1.35,0,*67
1501934700.0,15859,25.69,74576.5,24.73,1.79,-1.55,0,*6C
1501934701.21,15860,25.69,74578.5,24.69,1.01,-2.43,0,*66
1501934702.44,15861,25.69,74576.3,24.67,0.63,-2.75,0,*59
1501934703.66,15862,25.69,74576.5,24.65,-0.03,-3.51,0,*44
1501934704.85,15863,25.69,74578.8,24.63,-0.29,-3.75,0,*7D
1501934706.09,15864,25.69,74572.5,24.61,-0.19,-3.59,0,*75
1501934707.26,15865,25.69,74576.5,24.51,0.05,-3.31,0,*69
1501934708.49,15866,25.69,74574.5,24.51,0.87,-2.59,0,*5F
1501934709.72,15867,25.69,74578.5,24.45,0.33,-3.11,0,*59
1501934710.94,15868,25.69,74574.0,24.43,0.21,-3.19,0,*5B
1501934712.14,15869,25.69,74574.5,24.41,0.29,-3.11,0,*58
1501934713.35,15870,25.69,74576.3,24.39,0.29,-3.19,0,*57
1501934714.58,15871,25.69,74574.3,24.35,1.67,-1.55,0,*6B
1501934715.81,15872,25.69,74574.5,24.35,2.27,-1.01,0,*6E
1501934717.05,15873,25.69,74572.8,24.35,1.33,-2.15,0,*6F
1501934718.24,15874,25.69,74574.0,24.33,0.67,-2.79,0,*54
1501934719.45,15875,25.69,74570.5,24.29,0.41,-2.99,0,*54
1501934720.65,15876,25.69,74572.8,24.29,0.21,-3.27,0,*55
1501934721.87,15877,25.69,74572.3,24.23,-0.45,-4.13,0,*71
1501934723.08,15878,25.69,74574.0,24.19,-0.65,-4.29,0,*7C
1501934724.29,15879,25.69,74572.3,24.15,-0.73,-4.45,0,*7C
1501934725.49,15880,25.69,74572.8,24.13,-0.37,-4.13,0,*7F
1501934726.67,15881,25.69,74572.8,24.11,-0.49,-4.13,0,*75
1501934727.86,15882,25.69,74568.3,24.07,0.01,-3.51,0,*61
1501934729.08,15883,25.69,74572.8,24.01,0.01,-3.47,0,*61
1501934730.3,15884,25.69,74572.3,24.01,0.05,-3.47,0,*62
1501934731.5,15885,25.69,74572.3,23.97,0.43,-3.03,0,*59
1501934732.75,15886,25.69,74570.5,23.97,1.67,-1.71,0,*6A
1501934733.96,15887,25.69,74570.5,23.95,2.73,-0.41,0,*5D
1501934735.19,15888,25.69,74572.0,23.97,3.25,0.13,0,*78
1501934736.42,15889,25.69,74570.5,23.99,4.05,0.87,0,*7F
1501934737.66,15890,25.69,74568.8,24.05,4.11,1.09,0,*47
1501934738.86,15891,25.69,74572.0,24.07,2.99,-0.27,0,*52
1501934740.05,15892,25.69,74572.5,24.07,1.79,-1.51,0,*6C
1501934741.26,15893,25.69,74572.0,24.07,1.79,-1.47,0,*6A
1501934742.5,15894,25.75,74572.3,24.07,2.05,-1.05,0,*63
1501934743.7,15895,25.69,74568.3,24.07,3.45,0.43,0,*79
1501934744.87,15896,25.69,74572.3,24.07,4.19,1.41,0,*47
1501934746.07,15897,25.69,74570.5,24.13,5.77,2.91,0,*44
1501934747.31,15898,25.69,74568.5,24.17,6.73,3.97,0,*4F
1501934748.48,15899,25.75,74572.3,24.21,7.01,4.23,0,*47
1501934749.71,15900,25.69,74572.3,24.31,7.59,4.59,0,*47
1501934750.92,15901,25.69,74574.5,24.35,7.29,4.53,0,*4F
1501934752.14,15902,25.69,74572.8,24.43,7.69,4.85,0,*42
1501934753.33,15903,25.69,74572.0,24.51,8.23,5.49,0,*40
1501934754.55,15904,25.69,74574.0,24.57,8.09,5.23,0,*45
1501934755.77,15905,25.69,74572.0,24.61,8.61,5.73,0,*4A
1501934757.03,15906,25.69,74572.3,24.69,7.95,5.05,0,*44
1501934758.25,15907,25.69,74570.5,24.75,6.57,3.67,0,*45
1501934759.48,15908,25.69,74570.5,24.79,7.15,4.15,0,*43
1501934760.66,15909,25.69,74572.0,24.85,7.33,4.11,0,*41
1501934761.86,15910,25.69,74574.5,24.89,5.67,2.59,0,*4C
1501934763.09,15911,25.69,74570.8,24.91,5.81,2.61,0,*47
1501934764.32,15912,25.75,74574.3,24.97,7.65,4.67,0,*4A
1501934765.54,15913,25.69,74572.5,25.01,8.41,5.23,0,*4D
1501934766.77,15914,25.69,74572.8,25.07,6.97,3.75,0,*4C
1501934767.95,15915,25.69,74570.5,25.13,7.41,4.15,0,*43
1501934769.18,15916,25.69,74574.5,25.13,6.39,2.89,0,*4D
1501934770.42,15917,25.69,74574.5,25.19,5.63,2.09,0,*42
1501934771.68,15918,25.69,74574.5,25.23,5.93,2.43,0,*45
1501934772.9,15919,25.69,74574.3,25.23,5.01,1.41,0,*4E
1501934774.13,15920,25.75,74578.3,25.27,5.63,2.01,0,*43
1501934775.37,15921,25.69,74572.5,25.27,5.63,2.01,0,*42
1501934776.57,15922,25.69,74572.3,25.33,4.11,0.41,0,*76
1501934777.79,15923,25.69,74574.5,25.31,5.23,1.55,0,*41
1501934778.99,15924,25.69,74574.0,25.33,4.33,0.67,0,*74
1501934780.19,15925,25.69,74574.5,25.33,3.85,0.13,0,*7C
1501934781.39,15926,25.69,74572.0,25.33,3.11,-0.57,0,*5F
1501934782.6,15927,25.69,74572.5,25.35,2.95,-0.81,0,*5E
1501934783.8,15928,25.69,74572.3,25.33,3.29,-0.27,0,*5D
1501934785.01,15929,25.69,74572.0,25.33,2.39,-1.33,0,*68
1501934786.23,15930,25.69,74572.3,25.33,2.09,-1.71,0,*65
1501934787.5,15931,25.69,74574.8,25.31,1.17,-2.55,0,*6F
1501934788.76,15932,25.69,74572.0,25.31,1.71,-1.87,0,*60
1501934789.98,15933,25.69,74572.8,25.29,1.71,-1.67,0,*66
1501934791.22,15934,25.69,74576.0,25.25,1.59,-1.99,0,*66
1501934792.4,15935,25.69,74576.3,25.25,1.83,-1.55,0,*60
1501934793.64,15936,25.75,74578.3,25.23,2.13,-1.29,0,*64
1501934794.88,15937,25.69,74576.0,25.23,1.17,-2.27,0,*6F
1501934796.09,15938,25.69,74574.5,25.21,0.87,-2.35,0,*59
1501934797.35,15939,25.69,74572.5,25.19,1.25,-1.83,0,*64
1501934798.57,15940,25.69,74574.5,25.19,1.75,-1.29,0,*6F
1501934799.82,15941,25.69,74574.5,25.15,2.05,-1.01,0,*6C
1501934801.06,15942,25.69,74574.5,25.19,2.39,-0.45,0,*5D
1501934802.29,15943,25.69,74574.3,25.19,3.67,1.01,0,*4A
1501934803.53,15944,25.69,74574.5,25.19,3.67,1.01,0,*4D
1501934804.76,15945,25.75,74574.3,25.21,3.15,0.55,0,*72
1501934805.99,15946,25.69,74572.5,25.23,3.85,1.33,0,*4B
1501934807.19,15947,25.75,74578.0,25.25,3.37,0.97,0,*7A
1501934808.39,15948,25.75,74574.3,25.25,3.59,1.33,0,*42
1501934809.6,15949,25.69,74574.3,25.25,4.67,2.65,0,*49
1501934810.81,15950,25.75,74574.5,25.29,5.37,3.45,0,*4A
1501934812.06,15951,25.69,74574.3,25.35,4.71,2.69,0,*4A
1501934813.29,15952,25.69,74572.3,25.35,3.89,2.09,0,*4F
1501934814.55,15953,25.69,74572.8,25.35,3.03,1.13,0,*44
1501934815.81,15954,25.69,74574.0,25.41,4.05,2.47,0,*43
1501934817.05,15955,25.69,74572.5,25.43,4.75,3.03,0,*46
1501934818.29,15956,25.69,74574.0,25.45,5.27,3.79,0,*48
1501934819.5,15957,25.69,74572.0,25.47,5.41,4.05,0,*47
1501934820.72,15958,25.69,74572.8,25.53,5.77,4.57,0,*4F
1501934821.95,15959,25.75,74572.3,25.53,6.69,5.49,0,*4C
1501934823.12,15960,25.69,74574.0,25.59,5.37,4.07,0,*4F
1501934824.39,15961,25.75,74574.8,25.61,5.93,4.97,0,*42
1501934825.61,15962,25.69,74572.0,25.69,8.13,7.33,0,*41
1501934826.87,15963,25.69,74572.3,25.75,8.37,7.69,0,*44
1501934828.13,15964,25.75,74572.5,25.79,8.33,7.61,0,*43
1501934829.33,15965,25.75,74572.8,25.89,8.01,7.23,0,*4A
1501934830.53,15966,25.75,74574.0,25.93,6.43,5.63,0,*4C
1501934831.74,15967,25.69,74574.5,25.95,5.11,4.45,0,*4A
1501934832.91,15968,25.75,74572.5,25.97,4.07,3.25,0,*40
1501934834.09,15969,25.75,74572.3,25.97,4.33,3.63,0,*44
1501934835.28,15970,25.69,74572.5,25.97,4.01,3.25,0,*4F
1501934836.48,15971,25.75,74574.3,25.97,3.71,2.91,0,*40
1501934837.71,15972,25.69,74570.8,25.95,3.25,2.55,0,*48
1501934838.91,15973,25.75,74574.0,25.95,2.99,2.27,0,*4A
1501934840.14,15974,25.75,74574.0,25.95,4.07,3.49,0,*45
1501934841.37,15975,25.75,74574.3,25.99,6.21,5.81,0,*4C
1501934842.59,15976,25.69,74574.0,26.01,7.83,7.27,0,*4A
1501934843.81,15977,25.69,74574.0,26.05,6.91,6.25,0,*4E
1501934845.07,15978,25.69,74572.8,26.09,5.85,5.01,0,*4E
1501934846.28,15979,25.69,74574.8,26.11,4.93,4.07,0,*47
1501934847.48,15980,25.69,74570.5,26.11,4.07,3.15,0,*48
1501934848.69,15981,25.69,74574.3,26.09,3.63,2.65,0,*43
1501934849.91,15982,25.75,74572.8,26.09,3.33,2.27,0,*43
1501934851.17,15983,25.75,74576.0,26.09,4.05,2.81,0,*4C
1501934852.36,15984,25.75,74572.0,26.03,3.59,2.27,0,*43
1501934853.61,15985,25.75,74574.3,26.03,3.49,2.13,0,*44
1501934854.81,15986,25.75,74576.5,26.05,3.59,2.35,0,*44
1501934856.04,15987,25.75,74576.5,26.03,4.27,2.89,0,*4A
1501934857.28,15988,25.75,74574.3,26.03,4.63,3.23,0,*44
1501934858.51,15989,25.75,74572.8,26.05,4.75,3.29,0,*4E
1501934859.75,15990,25.75,74574.8,26.03,5.51,4.05,0,*4E
1501934860.98,15991,25.75,74572.0,26.05,5.19,3.67,0,*46
1501934862.21,15992,25.75,74574.0,26.03,5.11,3.45,0,*4B
1501934863.43,15993,25.75,74578.0,26.03,4.41,2.73,0,*4A
1501934864.66,15994,25.75,74576.5,26.03,4.71,2.95,0,*46
1501934865.85,15995,25.75,74574.0,26.05,5.29,3.55,0,*40
1501934867.05,15996,25.69,74574.8,26.05,5.99,4.15,0,*4B
1501934868.27,15997,25.69,74572.3,26.05,5.45,3.45,0,*49
1501934869.49,15998,25.75,74578.3,26.05,5.07,3.11,0,*41
1501934870.68,15999,25.75,74576.3,26.05,5.07,2.95,0,*4D
1501934871.91,16000,25.69,74572.5,26.03,4.97,2.65,0,*46
1501934873.14,16001,25.75,74578.0,26.05,4.71,2.35,0,*4C
1501934874.36,16002,25.75,74576.3,26.05,4.85,2.47,0,*41
1501934875.59,16003,25.69,74574.5,26.03,5.59,3.07,0,*43
1501934876.8,16004,25.75,74576.0,26.05,5.51,2.99,0,*4C
1501934878.06,16005,25.75,74578.3,26.03,5.01,2.39,0,*44
1501934879.28,16006,25.75,74576.3,26.03,5.41,2.73,0,*4D
1501934880.48,16007,25.69,74572.5,26.03,5.33,2.65,0,*4E
1501934881.71,16008,25.75,74576.3,26.03,5.81,2.99,0,*4B
1501934882.93,16009,25.75,74578.5,26.03,5.81,2.99,0,*4A
1501934884.16,16010,25.75,74576.8,26.03,5.99,3.11,0,*4A
1501934885.41,16011,25.75,74576.3,26.03,5.93,3.07,0,*46
1501934886.67,16012,25.75,74578.0,26.03,6.47,3.45,0,*49
1501934887.89,16013,25.75,74578.0,26.03,5.67,2.55,0,*49
1501934889.13,16014,25.75,74576.3,26.05,5.89,2.65,0,*4B
1501934890.33,16015,25.75,74578.8,26.03,5.99,2.65,0,*4D
1501934891.56,16016,25.75,74578.3,26.03,6.03,2.73,0,*49
1501934892.79,16017,25.75,74576.5,26.03,5.81,2.35,0,*43
1501934893.98,16018,25.75,74578.8,26.01,5.07,1.59,0,*49
1501934895.17,16019,25.75,74578.8,26.01,5.11,1.55,0,*43
1501934896.42,16020,25.75,74578.5,25.99,5.05,1.47,0,*4D
1501934897.63,16021,25.75,74578.8,25.99,5.45,1.97,0,*45
1501934898.89,16022,25.75,74576.5,25.95,6.13,2.51,0,*43
1501934900.1,16023,25.75,74578.3,25.97,6.29,2.59,0,*41
1501934901.32,16024,25.75,74576.8,25.97,7.11,3.49,0,*4C
1501934902.58,16025,25.75,74578.5,25.99,6.39,2.59,0,*48
1501934903.79,16026,25.75,74578.3,25.97,5.81,1.67,0,*4B
1501934905.02,16027,25.69,74578.0,25.97,5.85,1.85,0,*42
1501934906.23,16028,25.69,74576.0,25.97,6.33,2.39,0,*47
1501934907.43,16029,25.75,74578.3,25.97,6.93,3.03,0,*44
1501934908.68,16030,25.75,74576.5,25.95,6.57,2.55,0,*44
1501934909.91,16031,25.75,74578.3,25.95,6.69,2.65,0,*4B
1501934911.16,16032,25.75,74582.0,25.95,6.73,2.77,0,*40
1501934912.36,16033,25.75,74578.8,25.95,7.51,3.55,0,*41
1501934913.57,16034,25.75,74582.0,25.95,6.97,2.95,0,*40
1501934914.77,16035,25.75,74580.5,25.95,6.93,2.99,0,*49
1501934915.97,16036,25.69,74576.3,25.97,7.01,3.03,0,*40
1501934917.17,16037,25.75,74580.8,25.97,6.73,2.65,0,*44
1501934918.38,16038,25.69,74578.8,25.97,7.29,3.33,0,*47